Tracking 35331 objects as of 13-Sep-2026
HD Live streaming from Space Station
objects crossing your sky now

STARLINK-35844

Track STARLINK-35844 now!
10-day predictions
STARLINK-35844 is classified as:


NORAD ID: 66880
Int'l Code: 2025-283C
Launch date: December 4, 2025
Source: United States (US)
Launch site: AIR FORCE WESTERN TEST RANGE (AFWTR)
Your satellite tracking list
Your tracking list is empty




NASA's NSSDC Master Catalog

Two Line Element Set (TLE):
1 66880U 25283C   26256.33738114  .00011669  00000-0  35584-3 0  9990
2 66880  53.1585 231.1617 0001208  84.1976 275.9164 15.34410359 44595
Source of the keplerian elements: AFSPC